N122SP SLSU-SLLP

Flight info

Callsign N122SP
Flight time N/A
Altitude 26000
Route TOLIP UW18 VAPAS
Aircraft BE60/L-SDFGRY/C

Departure

Time 2026-04-15 11:51
Airport Juana Azurduy de Padilla Air Force Base (SLSU)

Arrival

Time N/A
Airport El Alto International Airport (SLLP)
Time Latitude Longitude Altitude Speed Heading
2026-04-15 11:31 -19.01371 -65.29350 9541 ft 0 kts 138°
2026-04-15 11:45 -19.01375 -65.29348 9539 ft 2 kts 175°
2026-04-15 11:45 -19.01378 -65.29361 9532 ft 3 kts 334°
2026-04-15 11:45 -19.01336 -65.29355 9540 ft 9 kts 30°
2026-04-15 11:45 -19.01291 -65.29313 9532 ft 7 kts 45°
2026-04-15 11:46 -19.01254 -65.29315 9533 ft 5 kts 327°
2026-04-15 11:46 -19.01223 -65.29325 9534 ft 7 kts 360°
2026-04-15 11:46 -19.01153 -65.29305 9531 ft 12 kts 15°
2026-04-15 11:46 -19.01083 -65.29279 9529 ft 11 kts 32°
2026-04-15 11:47 -19.01005 -65.29216 9524 ft 17 kts 22°
2026-04-15 11:47 -19.00921 -65.29132 9516 ft 16 kts 53°
2026-04-15 11:47 -19.00845 -65.29038 9517 ft 18 kts 47°
2026-04-15 11:47 -19.00758 -65.28941 9512 ft 18 kts 46°
2026-04-15 11:48 -19.00671 -65.28844 9509 ft 18 kts 45°
2026-04-15 11:48 -19.00584 -65.28746 9504 ft 18 kts 46°
2026-04-15 11:48 -19.00500 -65.28655 9498 ft 18 kts 46°
2026-04-15 11:48 -19.00406 -65.28552 9493 ft 21 kts 44°
2026-04-15 11:49 -19.00303 -65.28445 9486 ft 20 kts 43°
2026-04-15 11:49 -19.00226 -65.28364 9484 ft 6 kts 57°
2026-04-15 11:49 -19.00222 -65.28375 9482 ft 10 kts 218°
2026-04-15 11:49 -19.00435 -65.28598 9495 ft 74 kts 226°
2026-04-15 11:50 -19.00901 -65.29107 9563 ft 114 kts 225°
2026-04-15 11:50 -19.01539 -65.29783 9761 ft 145 kts 224°
2026-04-15 11:50 -19.02334 -65.30579 9896 ft 170 kts 223°
2026-04-15 11:50 -19.03262 -65.31436 10061 ft 187 kts 222°
2026-04-15 11:51 -19.04152 -65.32504 10237 ft 192 kts 250°
2026-04-15 11:51 -19.04063 -65.33838 10481 ft 199 kts 300°
2026-04-15 11:51 -19.03221 -65.34968 10941 ft 187 kts 310°
2026-04-15 11:51 -19.02362 -65.35990 11324 ft 189 kts 312°
2026-04-15 11:52 -19.01535 -65.37025 11882 ft 175 kts 305°
2026-04-15 11:52 -19.00818 -65.38063 12181 ft 187 kts 309°
2026-04-15 11:52 -18.99880 -65.39159 12082 ft 213 kts 311°
2026-04-15 11:52 -18.98825 -65.40348 11977 ft 228 kts 311°
2026-04-15 11:53 -18.97705 -65.41604 11880 ft 241 kts 312°
2026-04-15 11:53 -18.96537 -65.42929 11761 ft 250 kts 311°
2026-04-15 11:53 -18.95354 -65.44311 11648 ft 255 kts 310°
2026-04-15 11:53 -18.94226 -65.45719 11894 ft 244 kts 308°
2026-04-15 11:54 -18.93183 -65.47043 12278 ft 225 kts 309°
2026-04-15 11:54 -18.92208 -65.48245 12585 ft 211 kts 309°
2026-04-15 11:54 -18.91276 -65.49392 12881 ft 201 kts 309°
2026-04-15 11:54 -18.90381 -65.50507 13158 ft 195 kts 308°
2026-04-15 11:55 -18.89508 -65.51591 13408 ft 192 kts 309°